FW4267 Weather Reports


time (UTC)temp
C
wind
direction
speed
KPH
gust
KPH
rain 1hr
cm
rain 24hr
cm
rain mn
cm
humidity
%
barometer
mb
20260506115329 16 293 3.2 9.7 0.00 0.79 0.03 67 1010.9
20260506114830 16 298 1.6 8.0 0.00 0.79 0.03 68 1011.0
20260506114330 17 286 1.6 9.7 0.00 0.79 0.03 66 1011.0
20260506113829 17 4 0.0 9.7 0.00 0.79 0.03 64 1011.1
20260506113636 18 321 0.0 6.4 0.00 0.79 0.03 64 1011.0
20260506112828 17 324 3.2 6.4 0.00 0.79 0.03 66 1011.1
20260506112328 17 128 1.6 6.4 0.00 0.79 0.03 70 1011.1
20260506111828 16 71 1.6 6.4 0.00 0.79 0.03 69 1011.2
20260506111329 16 63 3.2 9.7 0.00 0.79 0.03 68 1011.1
20260506110830 16 340 0.0 9.7 0.00 0.79 0.03 71 1011.2
20260506110327 16 299 1.6 8.0 0.00 0.79 0.03 70 1011.3
20260506105829 15 305 1.6 8.0 0.00 0.79 0.03 74 1011.4
20260506105329 15 296 0.0 3.2 0.00 0.79 0.03 74 1011.4
20260506104829 15 300 1.6 6.4 0.00 0.79 0.03 71 1011.5
20260506104328 15 316 1.6 6.4 0.00 0.79 0.03 69 1011.6
20260506103827 15 302 0.0 8.0 0.00 0.79 0.03 71 1011.6
20260506103635 15 292 0.0 9.7 0.00 0.79 0.03 69 1011.6
20260506103136 16 323 3.2 9.7 0.00 0.79 0.03 67 1011.6
20260506102639 16 80 1.6 9.7 0.00 0.79 0.03 70 1011.5
20260506101829 16 309 1.6 9.7 0.00 0.79 0.03 71 1011.5
20260506101634 15 285 1.6 9.7 0.00 0.79 0.03 69 1011.5
20260506100828 16 272 3.2 6.4 0.00 0.79 0.03 68 1011.5
20260506100329 16 264 1.6 6.4 0.00 0.79 0.03 70 1011.6
20260506095826 16 61 1.6 6.4 0.00 0.79 0.03 72 1011.5
20260506095326 15 63 0.0 11.3 0.00 0.79 0.03 73 1011.5
20260506094826 15 306 4.8 11.3 0.00 0.79 0.03 70 1011.5
20260506094327 15 312 1.6 8.0 0.00 0.79 0.03 71 1011.6
20260506093827 15 319 1.6 9.7 0.00 0.79 0.03 72 1011.4
20260506093326 16 266 4.8 9.7 0.00 0.79 0.03 70 1011.5
20260506092829 16 305 1.6 6.4 0.00 0.79 0.03 71 1011.4
20260506092327 15 52 1.6 8.0 0.00 0.79 0.03 75 1011.5
20260506091829 15 111 3.2 11.3 0.00 0.79 0.03 74 1011.4
20260506091326 15 258 3.2 11.3 0.00 0.79 0.03 74 1011.4
20260506090825 15 296 3.2 14.5 0.00 0.79 0.03 74 1011.3
20260506090326 14 330 4.8 14.5 0.00 0.79 0.03 74 1011.3
20260506085825 14 313 3.2 11.3 0.00 0.79 0.03 77 1011.3
20260506085326 13 329 3.2 9.7 0.00 0.79 0.03 78 1011.3
20260506084824 13 303 1.6 11.3 0.00 0.79 0.03 78 1011.3
20260506084328 13 313 3.2 17.7 0.00 0.79 0.03 79 1011.2
20260506083824 13 289 4.8 17.7 0.00 0.79 0.03 78 1011.2
20260506083324 13 300 0.0 9.7 0.00 0.79 0.03 80 1011.3
20260506082824 13 258 3.2 11.3 0.00 0.79 0.03 77 1011.2
20260506082324 13 329 4.8 11.3 0.00 0.79 0.03 76 1011.3
20260506081824 13 307 4.8 11.3 0.00 0.79 0.03 77 1011.2
20260506081324 13 302 1.6 6.4 0.00 0.79 0.03 80 1011.3
20260506080826 13 307 0.0 8.0 0.00 0.79 0.03 85 1011.3
20260506080324 12 314 0.0 8.0 0.00 0.79 0.03 84 1011.3
20260506073326 12 290 3.2 9.7 0.00 0.79 0.03 86 1011.4
20260506072825 12 286 1.6 8.0 0.00 0.79 0.03 89 1011.3
20260506072324 11 288 3.2 8.0 0.00 0.79 0.03 89 1011.5
20260506071823 11 264 1.6 8.0 0.00 0.79 0.03 91 1011.3
20260506071324 11 255 3.2 6.4 0.00 0.79 0.03 93 1011.3
20260506070823 11 295 1.6 6.4 0.00 0.79 0.03 94 1011.2
20260506070323 11 319 0.0 4.8 0.00 0.79 0.03 96 1011.3
20260506062324 10 147 0.0 1.6 0.00 0.79 0.03 98 1011.4
20260506061822 10 147 0.0 1.6 0.00 0.79 0.03 98 1011.3
20260506061322 9 73 0.0 1.6 0.00 0.79 0.03 98 1011.3
20260506060947 8 34 0.0 0.0 0.00 0.79 0.03 98 1011.4
20260506060919 8 34 0.0 1.6 0.00 0.79 0.03 98 1011.3
20260506051321 7 323 0.0 0.0 0.00 0.79 0.03 97 1010.9
20260506050821 7 324 0.0 0.0 0.00 0.79 0.03 97 1010.8
20260506050320 7 323 0.0 0.0 0.00 0.79 0.03 97 1010.8
20260506044819 7 300 0.0 0.0 0.00 0.79 0.03 97 1010.9
20260506044320 7 300 0.0 0.0 0.00 0.79 0.03 97 1010.9
20260506044128 7 300 0.0 0.0 0.00 0.79 0.03 97 1010.9
20260506043631 7 300 0.0 0.0 0.00 0.79 0.03 97 1010.9
20260506042819 7 300 0.0 0.0 0.00 0.79 0.03 97 1010.9
20260506042320 7 300 0.0 0.0 0.00 0.79 0.03 97 1010.8
20260506041832 7 300 0.0 0.0 0.00 0.79 0.03 97 1010.9
20260506041319 7 300 0.0 0.0 0.00 0.79 0.03 97 1010.8
20260506040820 7 300 0.0 0.0 0.03 0.79 0.03 97 1010.8
20260506040319 7 300 0.0 0.0 0.03 0.79 0.03 98 1010.9
20260506035820 7 300 0.0 0.0 0.03 0.79 0.03 98 1010.8
20260506035318 7 300 0.0 0.0 0.03 0.79 0.03 98 1010.8
20260506034820 7 300 0.0 0.0 0.03 0.79 0.03 97 1010.9
20260506034318 7 300 0.0 0.0 0.03 0.79 0.03 97 1010.8
20260506033820 7 300 0.0 0.0 0.03 0.79 0.03 97 1010.9
20260506033318 7 300 0.0 1.6 0.03 0.79 0.03 98 1010.9
20260506032816 7 300 0.0 1.6 0.03 0.79 0.03 98 1010.9
20260506032317 7 300 0.0 1.6 0.03 0.79 0.03 98 1010.9
20260506031817 7 87 0.0 0.0 0.03 0.79 0.03 97 1010.8
20260506031507 7 89 0.0 0.0 0.00 0.79 0.00 97 1010.8
20260506031432 7 87 0.0 0.0 0.03 0.79 0.03 97 1010.9
20260506030318 7 87 0.0 0.0 0.00 0.79 0.00 97 1010.9
20260506025818 7 89 0.0 0.0 0.00 0.79 0.00 97 1010.9
20260506025316 7 87 0.0 0.0 0.00 0.79 0.00 97 1010.9
20260506024816 7 87 0.0 0.0 0.00 0.79 0.00 97 1010.9
20260506024316 7 87 0.0 0.0 0.00 0.79 0.00 97 1011.0
20260506023817 7 87 0.0 0.0 0.00 0.79 0.00 97 1010.9
20260506023622 7 87 0.0 0.0 0.00 0.79 0.00 97 1011.0
20260506022817 7 87 0.0 0.0 0.00 0.79 0.00 97 1011.0
20260506022329 7 87 0.0 0.0 0.00 0.79 0.00 97 1010.9
20260506021818 7 89 0.0 0.0 0.00 0.79 0.00 97 1010.9
20260506021316 7 87 0.0 0.0 0.00 0.79 0.00 97 1010.9
20260506021122 7 87 0.0 0.0 0.00 0.79 0.00 97 1010.8
20260506020315 7 87 0.0 0.0 0.00 0.79 0.00 97 1010.8
20260506015816 7 87 0.0 0.0 0.00 0.79 0.00 97 1010.8
20260506015315 7 89 0.0 0.0 0.00 0.79 0.00 97 1010.8
20260506014814 7 87 0.0 0.0 0.00 0.79 0.00 97 1010.9
20260506014317 7 87 0.0 0.0 0.00 0.79 0.00 97 1010.9
20260506013815 7 87 0.0 0.0 0.00 0.79 0.00 97 1010.8
20260506013316 7 87 0.0 0.0 0.00 0.79 0.00 97 1010.9
20260506012815 7 87 0.0 0.0 0.00 0.79 0.00 97 1010.9
20260506012315 7 87 0.0 0.0 0.00 0.79 0.00 97 1010.9
20260506011815 7 87 0.0 0.0 0.00 0.79 0.00 97 1010.9
20260506011314 7 87 0.0 0.0 0.00 0.79 0.00 97 1010.9
20260506010828 7 87 0.0 0.0 0.00 0.79 0.00 97 1011.0
20260506010316 7 87 0.0 0.0 0.00 0.79 0.00 97 1011.0
20260506005816 7 87 0.0 0.0 0.00 0.79 0.00 97 1011.1
20260506005619 7 87 0.0 0.0 0.00 0.79 0.00 97 1011.2
20260506004815 8 89 0.0 0.0 0.00 0.79 0.00 97 1011.2
20260506004623 8 87 0.0 0.0 0.00 0.79 0.00 97 1011.3
20260506003817 8 87 0.0 0.0 0.00 0.79 0.00 97 1011.2
20260506003314 8 87 0.0 0.0 0.00 0.79 0.00 97 1011.2
20260506002813 8 87 0.0 1.6 0.00 0.79 0.00 97 1011.2
20260506002313 8 87 0.0 1.6 0.00 0.79 0.00 97 1011.3
20260506001813 8 87 0.0 1.6 0.00 0.79 0.00 97 1011.3
20260506001316 8 94 0.0 0.0 0.00 0.79 0.00 97 1011.3
20260506000814 8 94 0.0 0.0 0.00 0.79 0.00 97 1011.5
20260506000314 8 94 0.0 0.0 0.00 0.79 0.00 97 1011.6
20260505235814 8 94 0.0 1.6 0.00 0.79 0.00 97 1011.6
20260505235621 8 94 0.0 1.6 0.00 0.79 0.00 97 1011.8
20260505234814 9 94 0.0 0.0 0.00 0.79 0.00 97 1011.8
20260505234313 9 94 0.0 0.0 0.00 0.79 0.00 97 1011.9
20260505233813 9 94 0.0 0.0 0.00 0.79 0.00 97 1011.9
20260505233449 9 94 0.0 0.0 0.00 0.79 0.00 97 1012.0
20260505233414 9 94 0.0 0.0 0.00 0.79 0.00 97 1011.9
20260505232621 9 94 0.0 0.0 0.00 0.79 0.00 97 1011.9
20260505231813 9 94 0.0 0.0 0.00 0.79 0.00 97 1012.0
20260505231311 9 94 0.0 0.0 0.00 0.79 0.00 97 1012.0
20260505230811 9 94 0.0 0.0 0.00 0.79 0.00 97 1011.9
20260505230314 9 94 0.0 0.0 0.00 0.79 0.00 97 1012.0
20260505230121 9 94 0.0 0.0 0.00 0.79 0.00 97 1011.9
20260505225617 8 94 0.0 0.0 0.00 0.79 0.00 97 1012.0
20260505224811 8 94 0.0 0.0 0.00 0.79 0.00 97 1012.0
20260505224313 8 94 0.0 0.0 0.00 0.79 0.00 97 1012.1
20260505223958 8 94 0.0 0.0 0.00 0.79 0.00 97 1012.0
20260505223919 8 94 0.0 0.0 0.00 0.79 0.00 97 1012.1
20260505222811 8 94 0.0 0.0 0.00 0.79 0.00 97 1012.0
20260505222631 8 94 0.0 0.0 0.00 0.79 0.00 97 1012.1
20260505222625 8 94 0.0 0.0 0.00 0.79 0.00 97 1012.1
20260505222620 8 94 0.0 0.0 0.00 0.79 0.00 97 1012.2
20260505220813 8 94 0.0 0.0 0.00 0.79 0.00 97 1012.2
20260505220310 9 94 0.0 0.0 0.00 0.79 0.00 97 1012.2
20260505215812 9 94 0.0 0.0 0.00 0.79 0.79 97 1012.2
20260505215311 9 94 0.0 0.0 0.00 0.79 0.79 97 1012.3
20260505214809 9 94 0.0 0.0 0.00 0.79 0.79 97 1012.3
20260505214459 9 94 0.0 0.0 0.00 0.79 0.79 97 1012.3
20260505214418 9 94 0.0 0.0 0.00 0.79 0.79 97 1012.2
20260505213627 9 94 0.0 0.0 0.00 0.79 0.79 97 1012.3
20260505213129 9 94 0.0 0.0 0.00 0.79 0.79 97 1012.2
20260505212311 9 94 0.0 0.0 0.00 0.79 0.79 97 1012.3
20260505211810 9 94 0.0 0.0 0.00 0.79 0.79 97 1012.2
20260505211637 9 94 0.0 0.0 0.00 0.79 0.79 97 1012.3
20260505210810 9 94 0.0 0.0 0.00 0.79 0.79 97 1012.4
20260505210310 9 94 0.0 0.0 0.00 0.79 0.79 97 1012.2
20260505205811 9 94 0.0 0.0 0.00 0.79 0.79 97 1012.2
20260505205309 9 94 0.0 0.0 0.00 0.79 0.79 97 1012.2
20260505204811 9 94 0.0 0.0 0.00 0.79 0.79 97 1012.3
20260505204310 9 94 0.0 0.0 0.00 0.79 0.79 96 1012.2
20260505203813 9 94 0.0 0.0 0.00 0.79 0.79 96 1012.1
20260505203537 9 94 0.0 0.0 0.00 0.79 0.79 96 1012.0
20260505203441 9 94 0.0 0.0 0.00 0.79 0.79 96 1012.1
20260505202425 9 94 0.0 0.0 0.00 0.79 0.79 96 1012.0
20260505201312 9 94 0.0 0.0 0.00 0.79 0.79 96 1011.8
20260505200809 9 94 0.0 0.0 0.00 0.79 0.79 96 1011.8
20260505200448 10 94 0.0 0.0 0.00 0.79 0.79 96 1011.9
20260505200414 10 94 0.0 0.0 0.00 0.79 0.79 96 1011.9
20260505195309 10 94 0.0 0.0 0.00 0.79 0.79 96 1011.8
20260505194810 10 94 0.0 0.0 0.00 0.79 0.79 96 1011.9
20260505194314 10 94 0.0 0.0 0.00 0.79 0.79 96 1011.8
20260505193809 10 94 0.0 0.0 0.00 0.79 0.79 96 1011.8
20260505193310 10 94 0.0 0.0 0.00 0.79 0.79 96 1011.9
20260505192808 10 94 0.0 1.6 0.00 0.79 0.79 96 1011.9
20260505192306 10 94 0.0 1.6 0.00 0.79 0.79 96 1011.8
20260505192008 10 94 0.0 0.0 0.00 0.79 0.79 96 1011.6
20260505191921 10 94 0.0 1.6 0.00 0.79 0.79 96 1011.8
20260505190809 10 94 0.0 0.0 0.00 0.79 0.79 95 1011.6
20260505190308 10 94 0.0 0.0 0.00 0.81 0.79 95 1011.6
20260505190134 10 94 0.0 0.0 0.00 0.84 0.79 95 1011.4
20260505185306 10 94 0.0 0.0 0.00 0.86 0.79 95 1011.4
20260505184806 10 94 0.0 0.0 0.00 0.86 0.79 95 1011.3
20260505184454 11 94 0.0 0.0 0.00 0.89 0.79 95 1011.3
20260505184416 10 94 0.0 0.0 0.00 0.89 0.79 95 1011.3
20260505183307 11 94 0.0 0.0 0.00 0.89 0.79 95 1011.3
20260505183121 11 94 0.0 0.0 0.00 0.91 0.79 95 1011.3
20260505182452 11 94 0.0 0.0 0.00 0.94 0.79 95 1011.4
20260505182414 11 94 0.0 0.0 0.00 0.94 0.79 95 1011.3
20260505181456 12 94 0.0 0.0 0.00 0.97 0.79 95 1011.2
20260505181414 11 94 0.0 0.0 0.00 0.97 0.79 95 1011.4
20260505180304 12 94 0.0 0.0 0.00 0.99 0.79 95 1011.2
20260505175807 12 94 0.0 0.0 0.00 0.99 0.79 95 1011.2
20260505175305 12 94 0.0 0.0 0.00 1.02 0.79 95 1011.2
20260505174807 12 94 0.0 1.6 0.00 1.07 0.79 95 1011.2
20260505174304 12 94 0.0 1.6 0.00 1.09 0.79 95 1011.2
20260505174120 12 116 0.0 1.6 0.00 1.17 0.79 96 1011.2
20260505173304 12 116 0.0 1.6 0.00 1.19 0.79 96 1011.3
20260505172803 12 116 0.0 1.6 0.00 1.24 0.79 96 1011.3
20260505172306 12 116 0.0 1.6 0.03 1.27 0.79 96 1011.2
20260505171804 12 116 0.0 1.6 0.05 1.32 0.79 96 1011.3
20260505171305 12 104 0.0 1.6 0.05 1.40 0.79 96 1011.4
20260505170804 12 104 0.0 1.6 0.05 1.57 0.79 96 1011.5
20260505170304 12 104 0.0 1.6 0.08 1.75 0.79 96 1011.5
20260505165804 12 104 0.0 1.6 0.08 2.03 0.79 95 1011.5
20260505165455 12 110 0.0 0.0 0.10 2.16 0.79 95 1011.5
20260505165417 12 104 0.0 1.6 0.10 2.13 0.79 95 1011.4
20260505164303 11 110 0.0 1.6 0.10 2.16 0.79 95 1011.6
20260505163804 11 110 0.0 1.6 0.13 2.16 0.79 95 1011.6
20260505163303 11 80 0.0 1.6 0.15 2.16 0.79 95 1011.6
20260505162805 11 80 0.0 1.6 0.18 2.16 0.79 95 1011.8
20260505162302 11 80 0.0 1.6 0.18 2.13 0.76 95 1011.6
20260505161805 11 78 0.0 1.6 0.18 2.11 0.74 95 1011.5
20260505161302 11 78 0.0 1.6 0.20 2.11 0.74 95 1011.8
20260505161120 11 298 0.0 0.0 0.18 2.11 0.71 95 1011.8
20260505160303 11 298 0.0 0.0 0.18 2.08 0.71 95 1011.9
20260505153302 11 303 1.6 4.8 0.36 2.06 0.64 93 1011.8
20260505152802 11 289 1.6 3.2 0.41 2.03 0.61 93 1011.8
20260505152304 11 290 0.0 3.2 0.46 2.03 0.58 93 1011.9
20260505151800 11 312 0.0 1.6 0.51 2.01 0.56 93 1011.9
20260505151302 11 82 0.0 3.2 0.51 1.98 0.53 93 1012.0
20260505150802 11 83 0.0 4.8 0.51 1.98 0.53 93 1012.0
20260505150300 11 58 0.0 4.8 0.51 1.96 0.51 93 1012.0
20260505130258 17 302 3.2 8.0 0.00 3.63 0.03 62 1010.3
20260505124758 17 285 1.6 9.7 0.00 3.63 0.03 65 1010.4
20260505124258 17 329 3.2 9.7 0.00 3.63 0.03 64 1010.4
20260505123757 17 226 3.2 8.0 0.00 3.63 0.03 68 1010.5
20260505123258 17 303 1.6 6.4 0.00 3.63 0.03 64 1010.5
20260505122757 17 66 1.6 6.4 0.00 3.63 0.03 71 1010.6
20260505122256 17 298 1.6 4.8 0.00 3.63 0.03 71 1010.7
20260505121915 17 306 3.2 8.0 0.00 3.63 0.03 67 1010.8
20260505121848 17 307 0.0 8.0 0.00 3.63 0.03 71 1010.7
20260505120758 17 345 0.0 3.2 0.00 3.63 0.03 70 1010.7
20260505120256 17 93 0.0 4.8 0.00 3.63 0.03 70 1010.7
20260505115757 17 292 0.0 6.4 0.00 3.63 0.03 69 1010.8